Location: Andershausen
(51.8462°N, 9.8595°E)
Time: 01:59:21
(UTC+00:00)

Cosmos 2278 Rocket - Pass Details

Date: 18 November 2025
Orbit: 841 x 843 km, 71.0° (Epoch: 13 December)

Event Time Altitude Azimuth Distance (km) Brightness Sun altitude
Rises 19:22:30 0° 262° (W) 3,396 6.2 -36.1°
Reaches altitude 10° 19:25:34 10° 278° (W) 2,464 5.4 -36.5°
Maximum altitude 19:29:47 21° 326° (NNW) 1,812 4.3 -37.1°
Enters shadow 19:30:30 21° 337° (NNW) 1,835 4.2 -37.2°
